Retour au catalogue

STARLINK-31099

ActifCommunicationsVLEO
NORAD 58781·PAYLOAD·🇺🇸 United States

Lancé Jan 14, 2024 depuis Vandenberg Space Force Base

Loading…

Prochains Passages (prochaines 24 heures)

TLE

FraisSource: CelesTrak SupGP

Époque: Sep 15, 2026, 03:11 UTC

1 58781C 24011S   26258.13312500 -.00046865  00000+0 -13847-2 0  2588
2 58781  53.1582 212.6322 0001306  86.7002 153.6374 15.34412775    15

Suivez STARLINK-31099 en temps réel avec AllMySat

Download on the App Store